TimeEDT,TemperatureF,Dew PointF,Humidity,Sea Level PressureIn,VisibilityMPH,Wind Direction,Wind SpeedMPH,Gust SpeedMPH,PrecipitationIn,Events,Conditions,WindDirDegrees,DateUTC
12:04 AM,26.6,23.0,86,29.68,2.0,SW,11.5,-,0.00,Snow,Light Snow,220,2013-03-22 04:04:00
12:21 AM,26.6,24.8,93,29.68,1.0,SW,8.1,-,0.00,Snow,Light Snow,220,2013-03-22 04:21:00
12:23 AM,26.6,24.8,93,29.68,0.8,SW,8.1,-,0.00,Snow,Light Snow,230,2013-03-22 04:23:00
12:40 AM,26.6,24.8,93,29.68,0.8,WSW,10.4,-,0.02,Snow,Light Snow,240,2013-03-22 04:40:00
12:47 AM,26.6,24.8,93,29.68,1.2,WSW,8.1,-,0.02,Snow,Light Snow,250,2013-03-22 04:47:00
12:54 AM,27.0,24.1,89,29.70,2.5,WSW,6.9,-,0.02,Snow,Light Snow,250,2013-03-22 04:54:00
12:56 AM,26.6,24.8,93,29.68,3.0,WSW,6.9,-,0.00,Snow,Light Snow,250,2013-03-22 04:56:00
1:13 AM,26.6,24.8,93,29.68,10.0,West,8.1,-,0.00,,Overcast,260,2013-03-22 05:13:00
1:54 AM,28.0,21.0,75,29.70,10.0,West,6.9,-,0.00,,Overcast,270,2013-03-22 05:54:00
2:54 AM,28.0,23.0,81,29.70,3.0,WNW,8.1,-,0.00,Snow,Light Snow,290,2013-03-22 06:54:00
3:01 AM,28.4,23.0,80,29.68,3.0,West,8.1,-,0.00,Snow,Light Snow,280,2013-03-22 07:01:00
3:28 AM,28.4,24.8,86,29.68,2.5,West,8.1,-,0.00,Snow,Light Snow,270,2013-03-22 07:28:00
3:34 AM,28.4,24.8,86,29.68,3.0,West,8.1,-,0.00,Snow,Light Snow,280,2013-03-22 07:34:00
3:37 AM,28.4,24.8,86,29.68,2.5,West,8.1,-,0.00,Snow,Light Snow,280,2013-03-22 07:37:00
3:46 AM,28.4,24.8,86,29.68,1.8,WNW,8.1,-,0.00,Snow,Light Snow,290,2013-03-22 07:46:00
3:54 AM,28.0,24.1,85,29.70,2.5,WNW,10.4,-,0.00,Snow,Light Snow,300,2013-03-22 07:54:00
4:01 AM,28.4,24.8,86,29.68,5.0,WNW,8.1,-,0.00,Snow,Light Snow,290,2013-03-22 08:01:00
4:07 AM,28.4,24.8,86,29.68,3.0,WNW,9.2,-,0.00,Snow,Light Snow,290,2013-03-22 08:07:00
4:13 AM,28.4,24.8,86,29.68,2.5,WNW,9.2,-,0.00,Snow,Light Snow,290,2013-03-22 08:13:00
4:23 AM,28.4,24.8,86,29.68,2.0,West,5.8,-,0.00,Snow,Light Snow,280,2013-03-22 08:23:00
4:54 AM,28.0,25.0,88,29.70,2.0,WNW,6.9,-,0.00,Snow,Light Snow,290,2013-03-22 08:54:00
5:03 AM,28.4,24.8,86,29.68,1.2,NW,9.2,-,0.01,Snow,Light Snow,310,2013-03-22 09:03:00
5:22 AM,28.4,24.8,86,29.68,0.8,WNW,8.1,-,0.02,Snow,Light Snow,300,2013-03-22 09:22:00
5:47 AM,28.4,24.8,86,29.69,0.5,WSW,10.4,-,0.04,Fog-Snow,Light Snow,250,2013-03-22 09:47:00
5:54 AM,27.0,24.1,89,29.70,0.8,WSW,8.1,-,0.05,Snow,Light Snow,240,2013-03-22 09:54:00
6:03 AM,26.6,24.8,93,29.69,1.2,WSW,10.4,-,0.00,Snow,Light Snow,240,2013-03-22 10:03:00
6:29 AM,26.6,23.0,86,29.69,0.8,West,11.5,-,0.01,Snow,Light Snow,260,2013-03-22 10:29:00
6:45 AM,26.6,23.0,86,29.69,0.5,WSW,9.2,-,0.02,Fog-Snow,Snow,250,2013-03-22 10:45:00
6:54 AM,26.1,23.0,88,29.71,0.8,WSW,8.1,-,0.02,Snow,Light Snow,240,2013-03-22 10:54:00
7:54 AM,26.1,23.0,88,29.73,0.5,WSW,10.4,-,0.04,Fog-Snow,Light Snow,250,2013-03-22 11:54:00
8:01 AM,26.6,23.0,86,29.71,1.2,WSW,11.5,-,0.00,Snow,Light Snow,250,2013-03-22 12:01:00
8:10 AM,26.6,23.0,86,29.72,1.2,WSW,10.4,-,0.00,Snow,Light Snow,250,2013-03-22 12:10:00
8:25 AM,26.6,23.0,86,29.72,0.8,West,8.1,-,0.00,Snow,Light Snow,270,2013-03-22 12:25:00
8:54 AM,27.0,23.0,85,29.74,0.5,West,9.2,-,0.02,Fog-Snow,Snow,260,2013-03-22 12:54:00
9:07 AM,26.6,24.8,93,29.72,1.0,WSW,6.9,-,0.00,Snow,Light Snow,250,2013-03-22 13:07:00
9:13 AM,26.6,24.8,93,29.72,2.0,West,6.9,-,0.00,Snow,Light Snow,260,2013-03-22 13:13:00
9:19 AM,28.4,24.8,86,29.72,1.8,West,11.5,-,0.00,Snow,Light Snow,260,2013-03-22 13:19:00
9:26 AM,28.4,24.8,86,29.72,0.8,West,10.4,-,0.00,Snow,Light Snow,280,2013-03-22 13:26:00
9:42 AM,28.4,24.8,86,29.72,1.2,West,8.1,-,0.00,Snow,Light Snow,280,2013-03-22 13:42:00
9:45 AM,28.4,24.8,86,29.73,2.0,West,8.1,-,0.00,Snow,Light Snow,280,2013-03-22 13:45:00
9:50 AM,28.4,24.8,86,29.73,3.0,WNW,8.1,-,0.01,Snow,Light Snow,300,2013-03-22 13:50:00
9:54 AM,28.9,24.1,82,29.75,3.0,WNW,8.1,-,0.01,Snow,Light Snow,290,2013-03-22 13:54:00
9:56 AM,28.4,24.8,86,29.73,2.5,WNW,9.2,-,0.00,Snow,Light Snow,290,2013-03-22 13:56:00
10:00 AM,28.4,24.8,86,29.73,1.8,WNW,9.2,-,0.00,Snow,Light Snow,290,2013-03-22 14:00:00
10:04 AM,28.4,24.8,86,29.73,0.8,WNW,12.7,-,0.00,Snow,Light Snow,300,2013-03-22 14:04:00
10:24 AM,28.4,24.8,86,29.74,1.2,WNW,9.2,-,0.00,Snow,Light Snow,290,2013-03-22 14:24:00
10:39 AM,28.4,24.8,86,29.74,2.5,WNW,11.5,-,0.00,Snow,Light Snow,300,2013-03-22 14:39:00
10:41 AM,28.4,24.8,86,29.74,4.0,WNW,10.4,-,0.00,Snow,Light Snow,300,2013-03-22 14:41:00
10:47 AM,28.4,24.8,86,29.74,5.0,West,10.4,18.4,0.00,Snow,Light Snow,280,2013-03-22 14:47:00
10:54 AM,30.0,21.9,72,29.76,8.0,WNW,16.1,20.7,0.00,Snow,Light Snow,290,2013-03-22 14:54:00
11:46 AM,28.4,19.4,69,29.75,10.0,West,18.4,25.3,0.00,,Overcast,270,2013-03-22 15:46:00
11:54 AM,28.9,19.9,69,29.77,10.0,WNW,16.1,27.6,0.00,,Overcast,290,2013-03-22 15:54:00
12:19 PM,26.6,19.4,74,29.76,2.5,WNW,19.6,26.5,0.00,Snow,Light Snow,290,2013-03-22 16:19:00
12:37 PM,26.6,19.4,74,29.77,1.2,WNW,18.4,26.5,0.00,Snow,Light Snow,290,2013-03-22 16:37:00
12:48 PM,28.4,19.4,69,29.77,3.0,WNW,16.1,23.0,0.00,Snow,Light Snow,290,2013-03-22 16:48:00
12:54 PM,28.0,19.0,69,29.80,7.0,WNW,17.3,24.2,0.00,Snow,Light Snow,290,2013-03-22 16:54:00
1:54 PM,28.0,18.0,66,29.80,10.0,West,15.0,21.9,0.00,,Overcast,280,2013-03-22 17:54:00
2:54 PM,28.9,19.0,67,29.80,10.0,WNW,20.7,33.4,0.00,,Overcast,290,2013-03-22 18:54:00
3:54 PM,30.0,19.9,66,29.81,7.0,West,18.4,27.6,0.00,Snow,Light Snow,270,2013-03-22 19:54:00
4:54 PM,30.9,21.9,69,29.81,10.0,WNW,11.5,25.3,0.00,,Overcast,290,2013-03-22 20:54:00
5:54 PM,32.0,21.9,66,29.82,10.0,WNW,15.0,23.0,0.00,,Overcast,290,2013-03-22 21:54:00
6:41 PM,32.0,23.0,69,29.81,10.0,WNW,17.3,26.5,N/A,,Overcast,290,2013-03-22 22:41:00
6:54 PM,32.0,23.0,69,29.83,9.0,WNW,18.4,24.2,N/A,,Overcast,290,2013-03-22 22:54:00
7:33 PM,33.8,24.8,70,29.82,10.0,WNW,12.7,-,0.00,,Overcast,290,2013-03-22 23:33:00
7:54 PM,32.0,26.1,79,29.85,4.0,WSW,9.2,-,0.01,Snow,Light Snow,240,2013-03-22 23:54:00
7:59 PM,30.2,26.6,86,29.83,2.5,WSW,9.2,-,0.01,Snow,Light Snow,250,2013-03-22 23:59:00
8:22 PM,30.2,26.6,86,29.84,3.0,West,10.4,-,0.03,Snow,Light Snow,260,2013-03-23 00:22:00
8:30 PM,30.2,26.6,86,29.84,4.0,WSW,10.4,-,0.03,Snow,Light Snow,250,2013-03-23 00:30:00
8:54 PM,30.9,26.1,82,29.86,5.0,West,6.9,-,0.05,Snow,Light Snow,260,2013-03-23 00:54:00
9:44 PM,30.2,26.6,86,29.85,2.0,West,11.5,-,0.05,Snow,Light Snow,280,2013-03-23 01:44:00
9:54 PM,30.9,27.0,85,29.87,1.2,WNW,15.0,19.6,0.06,Snow,Light Snow,290,2013-03-23 01:54:00
10:01 PM,32.0,26.6,80,29.85,1.8,West,13.8,19.6,0.01,Snow,Light Snow,280,2013-03-23 02:01:00
10:08 PM,32.0,26.6,80,29.85,2.0,West,13.8,-,0.01,Snow,Light Snow,270,2013-03-23 02:08:00
10:14 PM,30.2,26.6,86,29.85,1.0,West,15.0,-,0.02,Snow,Light Snow,280,2013-03-23 02:14:00
10:23 PM,30.2,28.4,93,29.85,0.8,West,12.7,-,0.03,Snow,Light Snow,280,2013-03-23 02:23:00
10:25 PM,30.2,28.4,93,29.85,1.0,West,13.8,-,0.03,Snow,Light Snow,270,2013-03-23 02:25:00
10:34 PM,30.2,28.4,93,29.85,1.8,West,8.1,-,0.03,Snow,Light Snow,280,2013-03-23 02:34:00
10:39 PM,30.2,28.4,93,29.85,3.0,West,9.2,-,0.03,Snow,Light Snow,280,2013-03-23 02:39:00
10:54 PM,32.0,26.1,79,29.87,4.0,West,15.0,-,0.03,Snow,Light Snow,270,2013-03-23 02:54:00
11:20 PM,30.2,26.6,86,29.85,2.0,WNW,11.5,-,0.00,Snow,Light Snow,290,2013-03-23 03:20:00
11:42 PM,30.2,26.6,86,29.86,1.2,WNW,13.8,24.2,0.00,Snow,Light Snow,300,2013-03-23 03:42:00
11:54 PM,30.0,26.1,85,29.88,1.8,WNW,11.5,-,0.00,Snow,Light Snow,290,2013-03-23 03:54:00